Location: Pensacola
(30.4142°N, 87.2155°W)
Time: 03:42:41
(UTC-05:00)

Tiangong 2 - Visible Passes

Search period start: 21 June 2018 00:00
Search period end: 01 July 2018 00:00
Orbit: 291 x 297 km, 42.8° (Epoch: 21 June)

Date Brightness Start Highest point End Pass type
(mag) Time Alt. Az. Time Alt. Az. Time Alt. Az.
22 Jun 3.2 04:53:54 10° S 04:55:18 14° SE 04:56:43 10° ESE visible
23 Jun 1.6 04:59:17 14° SSW 05:01:12 35° SE 05:03:35 10° ENE visible
24 Jun 0.5 05:04:58 14° WSW 05:07:05 75° NNW 05:09:38 10° NE visible
25 Jun 3.9 03:40:11 10° E 03:40:11 10° E 03:40:12 10° E visible
25 Jun 2.0 05:10:42 10° W 05:13:00 29° NNW 05:15:18 10° NE visible
26 Jun 3.2 03:45:35 19° ENE 03:45:35 19° ENE 03:46:33 10° ENE visible
26 Jun 3.0 05:17:14 10° WNW 05:18:55 16° NNW 05:20:36 10° NNE visible
27 Jun 2.7 03:50:53 27° NE 03:50:53 27° NE 03:52:17 10° NE visible
28 Jun 2.8 03:56:02 22° N 03:56:02 22° N 03:57:38 10° NNE visible
29 Jun 3.3 04:01:05 14° NNW 04:01:09 14° NNW 04:02:37 10° NNE visible
